Hourly Weather Adamantina

Today, 23 April, Friday

Time Temperature Precipitation Wind Pressure Humidity
00:00 +17°C° 0 mm 4 mps 724 mmHg 72%
01:00 +17°C° 0 mm 4 mps 724 mmHg 76%
02:00 +16°C° 0 mm 3 mps 724 mmHg 80%
03:00 +14°C° 0 mm 3 mps 724 mmHg 84%
04:00 +14°C° 0 mm 3 mps 724 mmHg 85%
05:00 +13°C° 0 mm 3 mps 724 mmHg 87%
06:00 +12°C° 0 mm 3 mps 724 mmHg 88%
07:00 +15°C° 0 mm 4 mps 725 mmHg 75%
08:00 +19°C° 0 mm 4 mps 726 mmHg 62%
09:00 +21°C° 0 mm 5 mps 726 mmHg 49%
10:00 +25°C° 0 mm 4 mps 726 mmHg 42%
11:00 +27°C° 0 mm 3 mps 726 mmHg 36%
12:00 +30°C° 0 mm 3 mps 725 mmHg 29%
13:00 +31°C° 0 mm 2 mps 725 mmHg 26%
14:00 +31°C° 0 mm 2 mps 724 mmHg 24%
15:00 +32°C° 0 mm 1 mps 723 mmHg 21%
16:00 +30°C° 0 mm 2 mps 723 mmHg 24%
17:00 +28°C° 0 mm 2 mps 722 mmHg 27%
18:00 +26°C° 0 mm 2 mps 722 mmHg 30%
19:00 +24°C° 0 mm 2 mps 722 mmHg 35%
20:00 +22°C° 0 mm 3 mps 723 mmHg 40%
21:00 +20°C° 0 mm 3 mps 723 mmHg 45%
22:00 +19°C° 0 mm 3 mps 723 mmHg 48%
23:00 +19°C° 0 mm 3 mps 723 mmHg 50%

Tomorrow, 24 April, Saturday

Time Temperature Precipitation Wind Pressure Humidity
00:00 +18°C° 0 mm 3 mps 723 mmHg 53%
01:00 +17°C° 0 mm 3 mps 723 mmHg 55%
02:00 +17°C° 0 mm 3 mps 722 mmHg 58%
03:00 +17°C° 0 mm 3 mps 722 mmHg 60%
04:00 +16°C° 0 mm 3 mps 722 mmHg 65%
05:00 +16°C° 0 mm 3 mps 723 mmHg 70%
06:00 +16°C° 0 mm 3 mps 723 mmHg 74%
07:00 +18°C° 0 mm 3 mps 723 mmHg 67%
08:00 +21°C° 0 mm 4 mps 724 mmHg 60%
09:00 +23°C° 0 mm 4 mps 725 mmHg 52%
10:00 +27°C° 0 mm 3 mps 725 mmHg 44%
11:00 +29°C° 0 mm 3 mps 724 mmHg 35%
12:00 +32°C° 0 mm 2 mps 724 mmHg 27%
13:00 +32°C° 0 mm 2 mps 723 mmHg 25%
14:00 +33°C° 0 mm 1 mps 723 mmHg 24%
15:00 +34°C° 0 mm 1 mps 722 mmHg 22%
16:00 +32°C° 0 mm 1 mps 721 mmHg 26%
17:00 +30°C° 0 mm 1 mps 721 mmHg 29%
18:00 +28°C° 0 mm 1 mps 721 mmHg 32%
19:00 +26°C° 0 mm 1 mps 721 mmHg 36%
20:00 +25°C° 0 mm 2 mps 721 mmHg 39%
21:00 +23°C° 0 mm 2 mps 722 mmHg 43%
22:00 +23°C° 0 mm 2 mps 722 mmHg 45%
23:00 +21°C° 0 mm 3 mps 722 mmHg 47%

Day after tomorrow, 25 April, Sunday

Time Temperature Precipitation Wind Pressure Humidity
00:00 +21°C° 0 mm 3 mps 722 mmHg 48%
01:00 +21°C° 0 mm 3 mps 722 mmHg 49%
02:00 +20°C° 0 mm 3 mps 721 mmHg 50%
03:00 +20°C° 0 mm 3 mps 721 mmHg 51%
04:00 +20°C° 0 mm 3 mps 721 mmHg 52%
05:00 +19°C° 0 mm 3 mps 721 mmHg 54%
06:00 +19°C° 0 mm 2 mps 722 mmHg 55%
07:00 +21°C° 0 mm 2 mps 722 mmHg 51%
08:00 +23°C° 0 mm 2 mps 723 mmHg 47%
09:00 +25°C° 0 mm 2 mps 723 mmHg 43%
10:00 +28°C° 0 mm 2 mps 723 mmHg 36%
11:00 +31°C° 0 mm 3 mps 723 mmHg 30%
12:00 +35°C° 0 mm 3 mps 723 mmHg 23%
13:00 +35°C° 0 mm 3 mps 722 mmHg 21%
14:00 +36°C° 0 mm 3 mps 721 mmHg 19%
15:00 +37°C° 0 mm 3 mps 721 mmHg 17%
16:00 +35°C° 0 mm 4 mps 721 mmHg 20%
17:00 +33°C° 0 mm 4 mps 720 mmHg 23%
18:00 +32°C° 0 mm 4 mps 720 mmHg 26%
19:00 +29°C° 0 mm 5 mps 721 mmHg 32%
20:00 +27°C° 0 mm 5 mps 721 mmHg 38%
21:00 +25°C° 0 mm 5 mps 722 mmHg 45%
22:00 +23°C° 0 mm 4 mps 722 mmHg 49%
23:00 +22°C° 0 mm 3 mps 722 mmHg 53%

26 April, Monday

Time Temperature Precipitation Wind Pressure Humidity
00:00 +21°C° 0 mm 2 mps 722 mmHg 58%
01:00 +21°C° 0 mm 2 mps 722 mmHg 58%
02:00 +21°C° 0 mm 2 mps 722 mmHg 59%
03:00 +20°C° 0 mm 3 mps 721 mmHg 60%
04:00 +20°C° 0 mm 2 mps 722 mmHg 61%
05:00 +20°C° 0 mm 2 mps 722 mmHg 63%
06:00 +20°C° 0 mm 2 mps 722 mmHg 65%
07:00 +21°C° 0 mm 3 mps 722 mmHg 63%
08:00 +22°C° 0 mm 3 mps 723 mmHg 61%
09:00 +22°C° 0 mm 3 mps 723 mmHg 60%
10:00 +25°C° 0 mm 3 mps 723 mmHg 56%
11:00 +26°C° 0 mm 3 mps 723 mmHg 52%
12:00 +28°C° 0 mm 3 mps 723 mmHg 47%
13:00 +29°C° 0 mm 3 mps 723 mmHg 44%
14:00 +30°C° 0 mm 3 mps 722 mmHg 41%
15:00 +31°C° 0 mm 3 mps 722 mmHg 38%
16:00 +29°C° 0.2 mm 3 mps 722 mmHg 47%
17:00 +27°C° 0.2 mm 3 mps 722 mmHg 56%
18:00 +25°C° 0.2 mm 3 mps 722 mmHg 64%
19:00 +24°C° 0.3 mm 2 mps 722 mmHg 67%
20:00 +23°C° 0.3 mm 2 mps 722 mmHg 70%
21:00 +23°C° 0.3 mm 1 mps 723 mmHg 73%
22:00 +21°C° 0 mm 2 mps 723 mmHg 70%
23:00 +21°C° 0 mm 2 mps 723 mmHg 66%

27 April, Tuesday

Time Temperature Precipitation Wind Pressure Humidity
00:00 +21°C° 0 mm 2 mps 723 mmHg 63%
01:00 +20°C° 0 mm 2 mps 723 mmHg 64%
02:00 +19°C° 0 mm 2 mps 723 mmHg 65%
03:00 +18°C° 0 mm 2 mps 722 mmHg 67%
04:00 +17°C° 0 mm 2 mps 722 mmHg 69%
05:00 +16°C° 0 mm 2 mps 723 mmHg 71%
06:00 +16°C° 0 mm 2 mps 723 mmHg 74%
07:00 +18°C° 0 mm 2 mps 723 mmHg 65%
08:00 +20°C° 0 mm 2 mps 724 mmHg 55%
09:00 +24°C° 0 mm 2 mps 725 mmHg 46%
10:00 +26°C° 0 mm 3 mps 725 mmHg 40%
11:00 +29°C° 0 mm 3 mps 724 mmHg 33%
12:00 +31°C° 0 mm 3 mps 724 mmHg 26%
13:00 +33°C° 0 mm 4 mps 723 mmHg 24%
14:00 +34°C° 0 mm 4 mps 723 mmHg 22%
15:00 +34°C° 0 mm 4 mps 722 mmHg 19%
16:00 +32°C° 0 mm 4 mps 722 mmHg 22%
17:00 +29°C° 0 mm 3 mps 722 mmHg 24%
18:00 +27°C° 0 mm 3 mps 722 mmHg 27%
19:00 +25°C° 0 mm 3 mps 722 mmHg 30%
20:00 +22°C° 0 mm 3 mps 722 mmHg 34%
21:00 +20°C° 0 mm 3 mps 723 mmHg 37%
22:00 +19°C° 0 mm 3 mps 723 mmHg 39%
23:00 +18°C° 0 mm 3 mps 723 mmHg 41%

28 April, Wednesday

Time Temperature Precipitation Wind Pressure Humidity
00:00 +17°C° 0 mm 3 mps 723 mmHg 42%
01:00 +16°C° 0 mm 3 mps 723 mmHg 46%
02:00 +16°C° 0 mm 3 mps 723 mmHg 50%
03:00 +15°C° 0 mm 2 mps 722 mmHg 54%
04:00 +15°C° 0 mm 2 mps 722 mmHg 62%
05:00 +15°C° 0 mm 2 mps 723 mmHg 70%
06:00 +14°C° 0 mm 2 mps 723 mmHg 78%
07:00 +17°C° 0 mm 2 mps 724 mmHg 71%
08:00 +20°C° 0 mm 3 mps 724 mmHg 65%
09:00 +24°C° 0 mm 3 mps 725 mmHg 59%
10:00 +27°C° 0 mm 2 mps 725 mmHg 48%
11:00 +30°C° 0 mm 2 mps 725 mmHg 37%
12:00 +32°C° 0 mm 1 mps 725 mmHg 25%
13:00 +34°C° 0 mm 2 mps 724 mmHg 22%
14:00 +34°C° 0 mm 3 mps 724 mmHg 19%
15:00 +35°C° 0 mm 4 mps 723 mmHg 15%
16:00 +33°C° 0 mm 3 mps 723 mmHg 17%
17:00 +29°C° 0 mm 3 mps 723 mmHg 19%
18:00 +27°C° 0 mm 3 mps 723 mmHg 21%
19:00 +25°C° 0 mm 2 mps 723 mmHg 26%
20:00 +21°C° 0 mm 2 mps 723 mmHg 32%
21:00 +19°C° 0 mm 2 mps 724 mmHg 38%
22:00 +18°C° 0 mm 2 mps 724 mmHg 41%
23:00 +18°C° 0 mm 2 mps 724 mmHg 44%
Show more